Location: Drocourt
(49.0571°N, 1.7669°E)
Time: 14:22:45
(UTC+00:00)

SR - Pass Details

Date: 17 April 2024
Orbit: 579 x 859 km, 66.7° (Epoch: 28 May)

Event Time Altitude Azimuth Distance (km) Brightness Sun altitude
Rises 07:34:47 0° 319° (NW) 3,137 ? 24.7°
Reaches altitude 10° 07:39:37 10° 1° (N) 2,123 ? 25.5°
Maximum altitude 07:40:26 10° 11° (N) 2,082 ? 25.6°
Drops below altitude 10° 07:41:15 10° 21° (NNE) 2,092 ? 25.8°
Sets 07:45:47 0° 63° (ENE) 2,922 ? 26.5°
